Pullman, WA

4:19 PM PST on December 10, 2016 (GMT -0800)
Pullman-Moscow Regional

Weather History for KPUW - November, 2012

Change the Weather History Date:

Sunday, November 4, 2012

  Actual Average Record
Temperature  
Mean Temperature 53 °F 41 °F  
Max Temperature 59 °F 49 °F 67 °F (1949)
Min Temperature 46 °F 33 °F 12 °F (2003)
Degree Days  
Heating Degree Days 12 24  
Month to date heating degree days 58 94  
Since 1 July heating degree days 863 1000  
Cooling Degree Days 0 0  
Month to date cooling degree days 0 0  
Year to date cooling degree days 248 213  
Growing Degree Days 2 (Base 50)    
Moisture  
Dew Point 46 °F    
Average Humidity 80    
Maximum Humidity 93    
Minimum Humidity 67    
Precipitation  
Precipitation 0.00 in 0.08 in 0.61 in (1994)
Month to date precipitation 0.23 0.28  
Year to date precipitation 18.54 13.31  
Sea Level Pressure  
Sea Level Pressure 30.33 in    
Wind  
Wind Speed 4 mph (East)    
Max Wind Speed 10 mph    
Max Gust Speed 13 mph    
Visibility 10 miles    
Events      
T = Trace of Precipitation, MM = Missing Value Source: NWS Daily Summary

Daily Weather History Graph

Daily Weather History Graph

Search for Another Location

Airport or City:

Trip Planner

Search our weather history database for the weather conditions in past years. The results will help you decide how hot, cold, wet, or windy it might be!

Date:

Astronomy

Nov. 04, 2012 Rise Set
Actual Time 6:35 AM PST 4:27 PM PST
Civil Twilight 6:03 AM PST 4:59 PM PST
Nautical Twilight 5:27 AM PST 5:35 PM PST
Astronomical Twilight 4:52 AM PST 6:10 PM PST
Moon 9:07 PM PST (11/4) 11:26 AM PST (11/4)
Length of Visible Light 10h 55m
Length of Day
9h 51m
Waning Gibbous, 71% of the Moon is Illuminated
Nov 4
Waning Gibbous
Nov 6
Last Quarter
Nov 13
New
Nov 20
First Quarter
Nov 28
Full

Hourly Weather History & Observations

Time (PST) Temp. Dew Point Humidity Pressure Visibility Wind Dir Wind Speed Gust Speed Precip Events Conditions
12:53 AM 50.0 °F 44.1 °F 80% 30.24 in 10.0 mi Calm Calm - N/A   Overcast
1:53 AM 48.0 °F 44.1 °F 86% 30.24 in 10.0 mi Calm Calm - N/A   Clear
1:53 AM 46.9 °F 44.1 °F 90% 30.26 in 10.0 mi Calm Calm - N/A   Overcast
2:53 AM 48.9 °F 44.1 °F 83% 30.25 in 10.0 mi ENE 3.5 mph - N/A   Overcast
3:53 AM 48.9 °F 45.0 °F 86% 30.27 in 10.0 mi East 4.6 mph - N/A   Overcast
4:53 AM 48.0 °F 44.1 °F 86% 30.29 in 10.0 mi Calm Calm - N/A   Overcast
5:53 AM 46.9 °F 44.1 °F 90% 30.30 in 10.0 mi Calm Calm - N/A   Overcast
6:53 AM 48.0 °F 44.1 °F 86% 30.32 in 10.0 mi ENE 3.5 mph - N/A   Overcast
7:53 AM 50.0 °F 45.0 °F 83% 30.35 in 10.0 mi East 5.8 mph - N/A   Overcast
8:53 AM 53.1 °F 46.0 °F 77% 30.37 in 10.0 mi NE 3.5 mph - N/A   Overcast
9:53 AM 55.9 °F 46.0 °F 69% 30.35 in 10.0 mi SE 8.1 mph - N/A   Overcast
10:53 AM 57.0 °F 46.9 °F 69% 30.36 in 10.0 mi SE 8.1 mph - N/A   Overcast
11:53 AM 57.9 °F 46.9 °F 67% 30.35 in 10.0 mi East 9.2 mph - N/A   Overcast
12:53 PM 57.9 °F 46.9 °F 67% 30.35 in 10.0 mi East 9.2 mph - N/A   Overcast
1:53 PM 57.0 °F 46.0 °F 67% 30.35 in 10.0 mi ESE 6.9 mph - N/A   Overcast
2:53 PM 57.0 °F 46.9 °F 69% 30.36 in 10.0 mi East 5.8 mph - N/A   Overcast
3:53 PM 55.9 °F 48.0 °F 75% 30.35 in 10.0 mi ESE 6.9 mph - N/A   Overcast
4:53 PM 55.9 °F 46.9 °F 72% 30.37 in 10.0 mi East 4.6 mph - N/A   Overcast
5:53 PM 55.0 °F 46.9 °F 74% 30.37 in 10.0 mi SSE 5.8 mph - N/A   Mostly Cloudy
6:53 PM 54.0 °F 46.9 °F 77% 30.35 in 10.0 mi SE 8.1 mph - N/A   Mostly Cloudy
7:53 PM 52.0 °F 46.0 °F 80% 30.35 in 10.0 mi Calm Calm - N/A   Clear
9:53 PM 48.9 °F 45.0 °F 86% 30.35 in 10.0 mi North - - N/A   Clear
10:53 PM 50.0 °F 45.0 °F 83% 30.33 in 10.0 mi ENE 3.5 mph - N/A   Clear